Back to catalog

STARLINK-5884

AliveCommunicationsVLEO
NORAD 55957·PAYLOAD·🇺🇸 United States

Launched Mar 17, 2023 from Vandenberg Space Force Base

Loading…

Next Passes (next 24 hours)

TLE

FreshSource: CelesTrak SupGP

Epoch: Sep 14, 2026, 14:19 UTC

1 55957C 23037AV  26257.59701389  .00060806  00000+0  50954-2 0  2571
2 55957  70.0003 148.2171 0003189 258.0316 263.0236 14.98302682    19

Track STARLINK-5884 in real time with AllMySat

Download on the App Store